User: anonymous   Login
Location: Malvern Link
(52.1333°N, 2.3000°W)
Time: 23:24:29
(UTC+00:00)
Language:

Cosmos 1092 Rocket - Orbit

View from above orbital plane
View from above orbital plane
View from above satellite
View from above satellite

Ground track
Ground track

The orbit data is extracted from the following two-line orbital elements,

1 11327U 79030B   20332.74241812  .00000018  00000-0  25347-5 0  9997
2 11327  82.9510  80.6692 0026541 252.7165 272.7903 13.76947064 92477
Epoch (UTC): 27 November 2020 17:49:04
Eccentricity: 0.0026541
inclination: 82.9510°
perigee height: 955 km
apogee height: 994 km
right ascension of ascending node: 80.6692°
argument of perigee: 252.7165°
revolutions per day: 13.76947064
mean anomaly at epoch: 272.7903°
orbit number at epoch: 9247

The dashed part of the orbit path shows where the satellite is in the earth's shadow,  

DLR